Regional Weather Roundup
Issued by NWS State College, PA

Home | Current Version | Previous Version | Text Only | Print | Product List | Glossary Off
Versions: 1 2 3 4 5 6 7 8 9 10 11 12 13 14 15 16 17 18 19 20 21 22 23 24 25 26 27 28 29 30 31 32 33 34 35 36 37 38 39 40 41 42 43 44 45 46 47 48 49 50

000
ASUS41 KCTP 190110
RWRCTP

REGIONAL WEATHER ROUNDUP
NATIONAL WEATHER SERVICE STATE COLLEGE PA
900 PM EDT FRI APR 18 2014

Note: "fair" indicates few or no clouds below 12,000 feet with no
significant weather and/or obstructions to visibility.

* = STATION THAT DOES NOT REPORT PRECIPITATION /E.G. RAIN...SNOW...ETC/
    THUNDER OR FOG.

PAZ002>004-007>009-013>016-020>023-029>032-190200-
WESTERN PENNSYLVANIA

CITY           SKY/WX    TMP DP  RH WIND       PRES   REMARKS
ERIE           CLEAR     47  40  76 CALM      30.27R
MEADVILLE      NOT AVBL
FRANKLIN*      CLEAR     54  36  50 NW3       30.25R
NEW CASTLE     FAIR      57  37  47 CALM      30.23R
BEAVER COUNTY  CLEAR     57  36  44 N5        30.21R
BUTLER*        MOCLDY    55  36  47 N3        30.24R
PITTSBURGH INT MOCLDY    61  34  36 N7        30.20R
PITTSBURGH     CLOUDY    62  32  32 N5        30.19S
INDIANA*       CLOUDY    57  28  33 CALM      30.21S
LATROBE        CLEAR     57  32  38 W7        30.21R
WASHINGTON CO* CLOUDY    55  34  44 CALM      30.22S
$$

PAZ004>006-010>012-017>019-024>028-033>037-041-042-045-046-049>053-190200-
CENTRAL PENNSYLVANIA

CITY           SKY/WX    TMP DP  RH WIND       PRES   REMARKS
BRADFORD       MOCLDY    51  35  54 NW9       30.22R
DUBOIS         CLOUDY    58  33  39 NW8       30.21R
CLEARFIELD     CLOUDY    53  33  46 S3        30.22R
JOHNSTOWN      CLOUDY    49  33  54 S7        30.21S
ALTOONA        CLOUDY    50  35  56 S7        30.25R
STATE COLLEGE  CLEAR     52  34  50 S5        30.23S
WILLIAMSPORT   CLOUDY    50  32  50 VRB5      30.24R
SELINSGROVE    CLOUDY    49  33  54 VRB3      30.28R
FT INDIANTOWN  CLOUDY    45  38  77 N2        30.29R
CAPITAL CITY   CLOUDY    49  35  58 CALM      30.29R
HARRISBURG     CLOUDY    48  35  60 SE6       30.28R
YORK           CLOUDY    49  34  56 S6        30.29R
$$

PAZ038>040-043-044-047-048-054-055-060>062-067>071-190200-
EASTERN PENNSYLVANIA

CITY           SKY/WX    TMP DP  RH WIND       PRES   REMARKS
SCRANTON       CLOUDY    47  29  49 S5        30.25R
MOUNT POCONO   CLOUDY    41  29  62 SW5       30.24R
ALLENTOWN      CLOUDY    50  30  46 S3        30.29R
QUAKERTOWN*    CLOUDY    46  34  61 CALM      30.29S
READING        CLOUDY    51  32  48 CALM      30.28R
LANCASTER      CLOUDY    48  33  56 S5        30.29R
COATESVILLE    NOT AVBL
POTTSTOWN      CLOUDY    47  34  60 CALM      30.30R
BLUE BELL      CLOUDY    46  37  71 CALM      30.28F
DOYLESTOWN     CLOUDY    45  33  63 CALM      30.29R
WILLOW GROVE   NOT AVBL
NORTH PHILA    CLOUDY    50  36  58 SE8       30.31R
PHILADELPHIA   CLOUDY    51  33  50 S8        30.30S
$$



USA.gov is the U.S. government's official web portal to all federal, state and local government web resources and services.